Location: Chervonnoye
(48.6000°N, 34.4000°E)
Time: 22:37:23
(UTC+00:00)

N. Korean satellite - Pass Details

Date: 05 October 2021
Orbit: 450 x 495 km, 97.3° (Epoch: 25 October)

Event Time Altitude Azimuth Distance (km) Brightness Sun altitude
Rises 01:57:30 0° 30° (NNE) 2,563 10.9 -18.9°
Reaches altitude 10° 02:00:22 10° 56° (NE) 1,685 10.4 -18.4°
Maximum altitude 02:02:25 14° 90° (E) 1,432 10.0 -18.1°
Drops below altitude 10° 02:04:27 10° 125° (SE) 1,686 9.9 -17.8°
Sets 02:07:19 0° 150° (SSE) 2,567 10.5 -17.3°
